KPAWILLO7 Weather Reports


time (UTC)temp
F
wind
direction
speed
knots
gust
knots
rain 1hr
in
rain 24hr
in
rain mn
in
humidity
%
barometer
mb
20260504024504 53 1 3.5 7.0 0.00 0.00 0.00 43 1014.5
20260504024003 53 2 3.5 7.0 0.00 0.00 0.00 43 1014.5
20260504023504 53 2 3.5 6.1 0.00 0.00 0.00 42 1014.4
20260504023003 53 2 3.5 6.1 0.00 0.00 0.00 42 1014.4
20260504022503 53 1 3.5 6.1 0.00 0.00 0.00 42 1014.5
20260504022004 53 1 3.5 6.1 0.00 0.00 0.00 42 1014.5
20260504021503 53 1 3.5 6.1 0.00 0.00 0.00 42 1014.4
20260504021004 53 1 3.5 3.5 0.00 0.00 0.00 42 1014.4
20260504020503 53 1 3.5 4.3 0.00 0.00 0.00 42 1014.4
20260504020004 53 1 3.5 4.3 0.00 0.00 0.00 42 1014.3
20260504015503 53 1 2.6 4.3 0.00 0.00 0.00 42 1014.4
20260504015004 53 2 2.6 3.5 0.00 0.00 0.00 42 1014.4
20260504014503 54 2 3.5 4.3 0.00 0.00 0.00 41 1014.3
20260504014003 54 2 2.6 4.3 0.00 0.00 0.00 41 1014.2
20260504013503 54 1 2.6 4.3 0.00 0.00 0.00 41 1014.2
20260504013004 54 1 2.6 3.5 0.00 0.00 0.00 41 1014.2
20260504012503 54 2 2.6 3.5 0.00 0.00 0.00 41 1014.2
20260504011503 54 1 2.6 2.6 0.00 0.00 0.00 40 1014.0
20260504010003 54 1 1.7 2.6 0.00 0.00 0.00 40 1013.8
20260504005504 55 1 2.6 3.5 0.00 0.00 0.00 39 1013.7
20260504005004 55 1 2.6 3.5 0.00 0.00 0.00 39 1013.7
20260504004503 55 1 2.6 2.6 0.00 0.00 0.00 39 1013.7
20260504003503 55 1 2.6 3.5 0.00 0.00 0.00 38 1013.5
20260504003004 56 1 2.6 4.3 0.00 0.00 0.00 38 1013.4
20260504002504 56 2 2.6 4.3 0.00 0.00 0.00 37 1013.4
20260504001504 56 1 2.6 4.3 0.00 0.00 0.00 36 1013.3
20260504001003 56 2 2.6 4.3 0.00 0.00 0.00 36 1013.3
20260504000504 57 1 2.6 3.5 0.00 0.00 0.00 36 1013.2
20260504000005 57 1 3.5 4.3 0.00 0.00 0.00 35 1013.2
20260503235503 57 2 2.6 4.3 0.00 0.00 0.00 34 1013.1
20260503235003 58 1 3.5 6.1 0.00 0.00 0.00 34 1013.1
20260503234503 58 2 4.3 6.1 0.00 0.00 0.00 34 1013.1
20260503234003 58 2 5.2 13.9 0.00 0.00 0.00 33 1013.0
20260503233503 58 2 5.2 13.9 0.00 0.00 0.00 32 1013.0
20260503233003 58 2 4.3 7.8 0.00 0.00 0.00 33 1012.9
20260503232503 58 1 5.2 7.8 0.00 0.00 0.00 33 1012.9
20260503232005 58 2 6.1 6.1 0.00 0.00 0.00 32 1012.8
20260503231503 59 1 5.2 7.8 0.00 0.00 0.00 32 1012.9
20260503230503 59 2 6.1 7.0 0.00 0.00 0.00 32 1012.9
20260503230004 59 1 6.1 7.0 0.00 0.00 0.00 31 1012.8
20260503225504 59 2 4.3 6.1 0.00 0.00 0.00 32 1012.7
20260503225003 59 2 5.2 9.6 0.00 0.00 0.00 31 1012.7
20260503224503 59 1 7.0 11.3 0.00 0.00 0.00 31 1012.7
20260503224003 59 1 7.0 12.2 0.00 0.00 0.00 30 1012.7
20260503223503 60 1 6.1 12.2 0.00 0.00 0.00 30 1012.7
20260503223003 60 1 5.2 7.0 0.00 0.00 0.00 30 1012.6
20260503222503 60 2 6.1 9.6 0.00 0.00 0.00 29 1012.7
20260503222003 59 1 6.1 9.6 0.00 0.00 0.00 30 1012.7
20260503221503 59 2 6.1 9.6 0.00 0.00 0.00 30 1012.6
20260503221003 59 1 7.8 13.9 0.00 0.00 0.00 30 1012.6
20260503215503 59 2 7.0 12.2 0.00 0.00 0.00 29 1012.6
20260503215004 59 1 7.8 10.4 0.00 0.00 0.00 30 1012.7
20260503214504 59 1 7.8 10.4 0.00 0.00 0.00 29 1012.5
20260503214003 59 1 7.8 10.4 0.00 0.00 0.00 29 1012.6
20260503213003 59 1 7.8 15.6 0.00 0.00 0.00 29 1012.5
20260503212503 59 1 7.0 15.6 0.00 0.00 0.00 28 1012.5
20260503212004 60 1 7.0 12.2 0.00 0.00 0.00 29 1012.5
20260503211503 59 2 7.8 13.9 0.00 0.00 0.00 29 1012.5
20260503211003 59 1 8.7 13.9 0.00 0.00 0.00 30 1012.6
20260503210503 59 1 9.6 16.5 0.00 0.00 0.00 29 1012.6
20260503210004 60 1 8.7 16.5 0.00 0.00 0.00 30 1012.6
20260503204504 59 2 7.0 11.3 0.00 0.00 0.00 32 1012.8
20260503204003 58 1 7.8 11.3 0.00 0.00 0.00 31 1012.8
20260503203504 58 2 7.8 11.3 0.00 0.00 0.00 31 1012.9
20260503202503 58 2 7.8 13.0 0.00 0.00 0.00 31 1012.8
20260503202003 57 1 7.8 13.9 0.00 0.00 0.00 32 1012.8
20260503201503 58 2 7.8 13.9 0.00 0.00 0.00 30 1012.9
20260503200503 57 2 7.0 13.0 0.00 0.00 0.00 31 1012.9
20260503200004 58 2 7.0 13.0 0.00 0.00 0.00 31 1012.9
20260503195504 58 1 8.7 13.0 0.00 0.00 0.00 31 1012.9
20260503195003 58 1 8.7 9.6 0.00 0.00 0.00 31 1013.0
20260503194004 59 1 7.0 12.2 0.00 0.00 0.00 32 1013.1
20260503193503 58 2 8.7 12.2 0.00 0.00 0.00 31 1013.0
20260503193004 57 1 9.6 10.4 0.00 0.00 0.00 31 1013.2
20260503192504 57 1 9.6 12.2 0.00 0.00 0.00 32 1013.2
20260503192003 58 2 8.7 12.2 0.00 0.00 0.00 30 1013.3
20260503191004 58 1 8.7 10.4 0.00 0.00 0.00 32 1013.2
20260503190004 56 2 7.0 12.2 0.00 0.00 0.00 32 1013.3
20260503185503 57 1 7.0 12.2 0.00 0.00 0.00 33 1013.5
20260503185004 56 2 7.0 8.7 0.00 0.00 0.00 32 1013.5
20260503184504 56 1 7.8 8.7 0.00 0.00 0.00 33 1013.5
20260503184003 56 1 7.0 8.7 0.00 0.00 0.00 33 1013.7
20260503183503 56 1 7.8 18.2 0.00 0.00 0.00 34 1013.6
20260503183004 56 1 7.8 18.2 0.00 0.00 0.00 32 1013.6
20260503182504 56 1 7.0 18.2 0.00 0.00 0.00 33 1013.6
20260503182004 56 2 7.8 14.8 0.00 0.00 0.00 32 1013.8
20260503181505 56 1 7.8 10.4 0.00 0.00 0.00 34 1013.7
20260503180503 55 1 11.3 17.4 0.00 0.00 0.00 34 1013.5
20260503180004 55 1 9.6 17.4 0.00 0.00 0.00 34 1013.6
20260503175004 55 1 5.2 8.7 0.00 0.00 0.00 35 1013.8
20260503174504 54 1 5.2 13.0 0.00 0.00 0.00 37 1013.9
20260503174004 54 2 7.0 13.0 0.00 0.00 0.00 34 1013.9
20260503172003 54 1 7.0 7.8 0.00 0.00 0.00 38 1014.0
20260503171503 52 2 7.0 13.0 0.00 0.00 0.00 38 1014.0
20260503171003 53 2 7.0 13.0 0.00 0.00 0.00 37 1013.9
20260503170503 54 2 7.0 13.0 0.00 0.00 0.00 39 1014.0
20260503151003 49 1 6.1 9.6 0.00 0.00 0.00 45 1014.7
20260503150503 49 2 6.1 8.7 0.00 0.00 0.00 48 1014.7
20260503131003 46 2 6.1 9.6 0.00 0.00 0.00 53 1014.5
20260503090504 43 1 2.6 4.3 0.00 0.00 0.00 63 1011.9
20260503081504 42 0 0.0 0.0 0.00 0.00 0.00 66 1011.7
20260503081003 43 1 0.0 0.9 0.00 0.00 0.00 65 1011.6
20260503080504 43 1 0.9 0.9 0.00 0.00 0.00 65 1011.6
20260503072004 44 1 0.9 1.7 0.00 0.00 0.00 62 1011.4
20260503071504 44 1 1.7 2.6 0.00 0.00 0.00 62 1011.5
20260503070503 45 1 0.9 4.3 0.00 0.00 0.00 61 1011.4
20260503055003 46 1 2.6 3.5 0.00 0.00 0.00 59 1011.8
20260503054503 46 2 2.6 3.5 0.00 0.00 0.00 59 1011.8
20260503054005 46 1 1.7 3.5 0.00 0.00 0.00 59 1011.8
20260503053503 46 2 1.7 3.5 0.00 0.00 0.00 59 1011.9
20260503053003 46 1 1.7 3.5 0.00 0.00 0.00 58 1012.0
20260503052503 47 2 1.7 3.5 0.00 0.00 0.00 58 1012.1
20260503052004 47 1 1.7 2.6 0.00 0.00 0.00 57 1012.2
20260503051003 47 1 3.5 4.3 0.00 0.00 0.00 56 1012.2
20260503050503 47 2 3.5 4.3 0.00 0.00 0.00 56 1012.2
20260503050004 48 2 2.6 4.3 0.00 0.00 0.00 56 1012.2
20260503045503 48 1 1.7 4.3 0.00 0.00 0.00 55 1012.3
20260503045003 48 1 2.6 4.3 0.00 0.00 0.00 55 1012.3
20260503044004 48 1 1.7 2.6 0.00 0.00 0.00 54 1012.4
20260503043503 48 1 2.6 5.2 0.00 0.00 0.00 54 1012.5
20260503042504 48 2 2.6 6.1 0.00 0.00 0.00 53 1012.5
20260503042003 48 1 2.6 6.1 0.00 0.00 0.00 53 1012.5
20260503041503 48 1 1.7 6.1 0.00 0.00 0.00 53 1012.5
20260503040504 49 1 2.6 2.6 0.00 0.00 0.00 51 1012.6
20260503040004 49 1 2.6 3.5 0.00 0.00 0.00 51 1012.6
20260503035504 49 2 2.6 3.5 0.00 0.00 0.00 51 1012.6
20260503035004 49 1 2.6 5.2 0.00 0.00 0.00 50 1012.6
20260503034503 49 2 2.6 5.2 0.00 0.00 0.00 50 1012.6
20260503034003 49 1 1.7 3.5 0.00 0.00 0.00 49 1012.5
20260503031003 50 1 2.6 6.1 0.00 0.00 0.00 48 1012.5
20260503030504 50 1 2.6 6.1 0.00 0.00 0.00 47 1012.6
20260503030004 50 1 2.6 4.3 0.00 0.00 0.00 47 1012.5
20260503025003 51 1 2.6 5.2 0.00 0.00 0.00 47 1012.5